Flag Weather past 2 weeks in Gloucester, England, United Kingdom

Now
61 °F

Passing clouds.


Feels Like: 61 °F
Forecast: 57 / 67 °F
Wind: 10 mph from South

Location: Staverton Private

Current Time: Oct 31, 2014 at 9:28:59 AM

Latest Report: Oct 31, 2014 at 8:50 AM


Visibility: 6 mi

Pressure: 29.98 "Hg

Humidity: 88%

Dew point: 57 °F

Location of GloucesterLocation

Historic Weather in Gloucester — Graph

°F

Gloucester temperature yesterday

Maximum temperature yesterday: 66 °F (at 1:20 PM)
Minimum temperature yesterday: 61 °F (at 6:50 AM)
Average temperature yesterday: 63 °F

Past Weeks' High & Low Weather Summary

 TemperatureHumidityPressure
High68 °F (Oct 28, 12:20 PM)100% (Oct 24, 12:20 PM)30.30 "Hg (Oct 24, 12:20 PM)
Low45 °F (Oct 22, 6:50 AM)58% (Oct 21, 3:50 PM)29.50 "Hg (Oct 21, 6:50 AM)
Average59 °F83%29.93 "Hg
* Reported Oct 16 9:20 AM — Oct 31 8:20 AM, Gloucester, Weather by CustomWeather, © 2014

Note: Actual official high and low records may vary slightly from our data, if they occured in-between our weather recording intervals... More about our weather records

Advertising

Gloucester weather history for previous 24 hours

 ConditionsComfort  
Time TempWeatherWind HumidityBarometerVisibility
8:20 AM
Oct 31
61 °FPassing clouds.7 mph88%29.98 "Hg6 mi
7:20 PM
Oct 30
61 °FPassing clouds.6 mph94%30.04 "HgN/A
6:50 PM61 °FPassing clouds.7 mph94%30.04 "HgN/A
6:20 PM61 °FPassing clouds.7 mph94%30.01 "HgN/A
5:50 PM63 °FPassing clouds.6 mph88%30.01 "HgN/A
5:20 PM63 °FPassing clouds.6 mph88%30.01 "HgN/A
4:50 PM63 °FPassing clouds.6 mph88%30.01 "HgN/A
4:20 PM64 °FPassing clouds.5 mph83%30.01 "HgN/A
3:50 PM64 °FPassing clouds.7 mph83%30.01 "HgN/A
3:20 PM64 °FPassing clouds.7 mph83%30.01 "HgN/A
2:50 PM64 °FPassing clouds.7 mph83%30.01 "HgN/A
2:20 PM66 °FPassing clouds.12 mph78%30.01 "HgN/A
1:50 PM66 °FPassing clouds.10 mph78%30.01 "HgN/A
1:20 PM66 °FPassing clouds.9 mph78%30.01 "HgN/A
12:50 PM64 °FPartly sunny.9 mph83%30.04 "HgN/A
12:20 PM64 °FScattered clouds.9 mph83%30.04 "HgN/A
11:50 AM64 °FBroken clouds.6 mph83%30.04 "HgN/A
11:20 AM64 °FBroken clouds.7 mph83%30.04 "HgN/A
10:50 AM63 °FBroken clouds.8 mph88%30.04 "HgN/A
10:20 AM64 °FBroken clouds.7 mph83%30.04 "HgN/A
9:50 AM63 °FPartly sunny.5 mph88%30.01 "HgN/A
9:20 AM63 °FPartly sunny.6 mph88%30.01 "Hg6 mi
Weather by CustomWeather, © 2014

See weather overviewHow to use our weather pages